Regional Weather Roundup
Issued by NWS Sioux Falls, SD

Home | Current Version | Previous Version | Text Only | Print | Product List | Glossary On
Versions: 1 2 3 4 5 6 7 8 9 10 11 12 13 14 15 16 17 18 19 20 21 22 23 24 25 26 27 28 29 30 31 32 33 34 35 36 37 38 39 40 41 42 43 44 45 46 47 48 49 50
000
ASUS43 KFSD 211310
RWRFSD

WEATHER ROUNDUP FOR SE SOUTH DAKOTA/SW MINNESOTA/NW IOWA
NATIONAL WEATHER SERVICE SIOUX FALLS SD
800 AM CDT SAT APR 21 2018

NOTE: "FAIR" INDICATES FEW OR NO CLOUDS BELOW 12,000 FEET WITH NO
SIGNIFICANT WEATHER AND OR OBSTRUCTIONS TO VISIBILITY.


SDZ038>040-050-052>070-211400-
SOUTHEAST SOUTH DAKOTA

CITY           SKY/WX    TMP DP  RH WIND       PRES   REMARKS
BROOKINGS      CLOUDY    37  32  82 CALM      30.37R
CHAMBERLAIN    CLOUDY    40  40 100 CALM      30.34R FOG
HURON          CLOUDY    39  35  86 E6        30.35R
MADISON        FAIR      37  37 100 SE5       30.36R
MITCHELL       CLOUDY    38  33  82 SE7       30.37R
SIOUX FALLS    CLOUDY    39  29  67 E5        30.36R
WINNER         CLOUDY    39  34  82 SE8       30.32R
YANKTON        CLOUDY    40  35  83 NE7       30.35R
$$

MNZ071-072-080-081-089-090-097-098-211400-
SOUTHWEST MINNESOTA

CITY           SKY/WX    TMP DP  RH WIND       PRES   REMARKS
FAIRMONT       CLOUDY    36  29  75 NE6       30.40R
JACKSON        CLOUDY    36  28  75 E7        30.38S
LUVERNE        CLOUDY    37  30  75 CALM      30.36S
MARSHALL       PTSUNNY   37  31  78 CALM      30.40R
MONTEVIDEO     MOSUNNY   36  32  87 SE5       30.40F
PIPESTONE      CLOUDY   N/A N/A N/A E3        30.36R
REDWOOD FALLS  CLOUDY    36  29  75 E6        30.40S
TRACY          CLOUDY    36  32  85 CALM      30.39R
WINDOM         CLOUDY    37  21  52 CALM      30.38S
WORTHINGTON    CLOUDY    36  30  79 SE5       30.37S
$$

IAZ001>003-012>014-020>022-031-032-NEZ013-014-SDZ071-211400-
NORTHWEST IOWA

CITY           SKY/WX    TMP DP  RH WIND       PRES   REMARKS
CHEROKEE       CLOUDY    38  31  77 E3        30.37R
DENISON        PTSUNNY   43  34  70 E5        30.34S
ESTHERVILLE    CLOUDY    34  29  82 NE8       30.37S WCI  27
LE MARS        CLOUDY    41  32  70 VRB5      30.35S
ORANGE CITY    DRIZZLE   39  34  81 E7        30.36R
SHELDON        CLOUDY    39  32  75 E9        30.35R
SIOUX CITY     CLOUDY    43  34  70 E5        30.33R
SPENCER        CLOUDY    38  30  73 E6        30.37R
STORM LAKE     CLOUDY    37  30  75 NE9       30.36R
$$

ABBREVIATIONS USED IN REMARKS
   TC - TEMPERATURE IN CELSIUS
  WCI - WIND CHILL INDEX
   HX - HEAT INDEX
  VSB - VISIBILITY





USA.gov is the U.S. government's official web portal to all federal, state and local government web resources and services.